Back to catalog

OPS 9347

IDSCS 25

AliveMilitaryMEO
NORAD 3290·PAYLOAD·🇺🇸 United States

Launched Jun 13, 1968 from Cape Canaveral Space Force Station

Loading…

Next Passes (next 24 hours)

TLE

FreshSource: Space-Track

Epoch: Sep 14, 2026, 06:42 UTC

1 03290U 68050G   26257.27949765 -.00000093  00000-0  00000-0 0  9997
2 03290   7.1544  53.2085 0061861 140.8409 206.7195  1.07035264 48086

Track OPS 9347 in real time with AllMySat

Download on the App Store